Location: Kaiser
(34.0939°N, 117.4889°W)
Time: 21:55:25
(UTC+00:00)

DELTA 2 R/B (1) - Pass Details

Date: 29 October 2020
Orbit: 790 x 803 km, 39.6° (Epoch: 26 November)

Event Time Altitude Azimuth Distance (km) Brightness Sun altitude
Exits shadow 12:19:30 46° 231° (SW) 1,054 3.8 -22.9°
Maximum altitude 12:20:05 48° 211° (SSW) 1,028 3.9 -22.7°
Drops below altitude 10° 12:25:26 10° 138° (SE) 2,364 6.6 -21.6°
Sets 12:27:59 0° 133° (SE) 3,293 7.5 -21.1°
